Sisseton, SD

3:09 PM CDT on July 27, 2016 (GMT -0500)
Sisseton

Weather History for K8D3 - March, 2014

Change the Weather History Date:

Monday, March 10, 2014

  Actual Average Record
Temperature  
Mean Temperature 49 °F 27 °F  
Max Temperature 59 °F 36 °F 59 °F (2014)
Min Temperature 38 °F 19 °F -22 °F (1948)
Degree Days  
Heating Degree Days 16 38  
Month to date heating degree days 461 397  
Since 1 July heating degree days 7278 6656  
Cooling Degree Days 0 0  
Month to date cooling degree days 0 0  
Year to date cooling degree days 0 0  
Moisture  
Dew Point 36 °F    
Average Humidity 58    
Maximum Humidity 76    
Minimum Humidity 40    
Precipitation  
Precipitation 0.00 in 0.03 in 0.42 in (2010)
Month to date precipitation 0.11 0.35  
Year to date precipitation 0.73 1.21  
Snow  
Snow 0.00 in - - ()
Month to date snowfall 1.1  
Since 1 July snowfall 23.0  
Snow Depth 0.00 in    
Sea Level Pressure  
Sea Level Pressure 29.69 in    
Wind  
Wind Speed 9 mph (NW)    
Max Wind Speed 24 mph    
Max Gust Speed 30 mph    
T = Trace of Precipitation, MM = Missing Value Source: NWS Daily Summary

Daily Weather History Graph

Daily Weather History Graph

Search for Another Location

Airport or City:

Trip Planner

Search our weather history database for the weather conditions in past years. The results will help you decide how hot, cold, wet, or windy it might be!

Date:

Astronomy

Mar. 10, 2014 Rise Set
Actual Time 7:49 AM CDT 7:27 PM CDT
Civil Twilight 7:20 AM CDT 7:56 PM CDT
Nautical Twilight 6:45 AM CDT 8:31 PM CDT
Astronomical Twilight 6:11 AM CDT 9:06 PM CDT
Moon 1:59 PM CDT (3/10) 4:14 AM CDT (3/10)
Length of Visible Light 12h 36m
Length of Day
11h 37m
Waxing Gibbous, 70% of the Moon is Illuminated
Mar 10
Waxing Gibbous
Mar 16
Full
Mar 23
Last Quarter
Mar 30
New
Apr 7
First Quarter

Hourly Weather History & Observations

Time (CDT) Temp. Windchill Dew Point Humidity Pressure Visibility Wind Dir Wind Speed Gust Speed Precip Events Conditions
12:56 AM 46.9 °F - 35.1 °F 63% 29.65 in - WNW 11.5 mph - N/A   Unknown
1:56 AM 42.1 °F 38.4 °F 34.0 °F 73% 29.66 in - West 5.8 mph - N/A   Unknown
2:56 AM 43.0 °F 39.5 °F 34.0 °F 71% 29.65 in - West 5.8 mph - N/A   Unknown
3:56 AM 42.1 °F 38.4 °F 34.0 °F 73% 29.65 in - West 5.8 mph - N/A   Unknown
4:56 AM 44.1 °F 39.5 °F 34.0 °F 68% 29.64 in - West 8.1 mph - N/A   Unknown
5:56 AM 43.0 °F 36.4 °F 35.1 °F 74% 29.64 in - WNW 12.7 mph - N/A   Unknown
6:56 AM 42.1 °F 36.6 °F 34.0 °F 73% 29.66 in - WNW 9.2 mph - N/A   Unknown
7:56 AM 42.1 °F - 34.0 °F 73% 29.68 in - Calm Calm - N/A   Unknown
8:56 AM 44.1 °F 39.5 °F 36.0 °F 73% 29.70 in - West 8.1 mph - N/A   Unknown
9:56 AM 48.9 °F - 37.9 °F 66% 29.70 in - North - - N/A   Unknown
10:56 AM 51.1 °F - 37.9 °F 61% 29.70 in - NW 18.4 mph - N/A   Unknown
11:56 AM 53.1 °F - 39.0 °F 59% 29.72 in - NNW 16.1 mph - N/A   Unknown
12:56 PM 55.0 °F - 39.0 °F 55% 29.71 in - NNW 11.5 mph - N/A   Unknown
1:56 PM 55.9 °F - 35.1 °F 45% 29.69 in - North 11.5 mph - N/A   Unknown
2:56 PM 57.9 °F - 33.1 °F 39% 29.68 in - NNW 10.4 mph - N/A   Unknown
3:56 PM 57.9 °F - 34.0 °F 41% 29.68 in - North 11.5 mph - N/A   Unknown
4:56 PM 55.9 °F - 37.9 °F 51% 29.69 in - NNW 8.1 mph - N/A   Unknown
5:56 PM 52.0 °F - 37.0 °F 57% 29.69 in - North 6.9 mph - N/A   Unknown
6:56 PM 48.9 °F - 37.9 °F 66% 29.71 in - North 4.6 mph - N/A   Unknown
7:56 PM 44.1 °F 39.5 °F 37.0 °F 76% 29.73 in - North 8.1 mph - N/A   Unknown
8:56 PM 44.1 °F 39.5 °F 36.0 °F 73% 29.75 in - NNW 8.1 mph - N/A   Unknown
9:56 PM 42.1 °F 36.1 °F 34.0 °F 73% 29.75 in - North 10.4 mph - N/A   Unknown
10:56 PM 44.1 °F 35.9 °F 33.1 °F 65% 29.75 in - NNE 19.6 mph 27.6 mph N/A   Unknown
11:56 PM 41.0 °F 38.0 °F 34.0 °F 76% 29.76 in - NNW 4.6 mph - N/A   Unknown